Home > Weather > Søgne > Past weeks

Flag for Norway Past Weather in Søgne, Norway — Yesterday and Last 2 Weeks

Now
50 °F

Cool.


Feels Like: 49 °F
Forecast: 50 / 60 °F
Wind: 3 mph from North

Location: Oksoy Fyr

Current Time: May 27, 2016 at 2:23:34 AM

Latest Report: May 27, 2016 at 1:00 AM


Visibility: N/A

Pressure: 30.10 "Hg

Humidity: 92%

Dew Point: 48 °F

Location of SøgneLocation

Past Weather in Søgne — Graph

°F

Søgne Temperature Yesterday

Maximum temperature yesterday: 56 °F (at 3:00 PM)
Minimum temperature yesterday: 47 °F (at 5:00 AM)
Average temperature yesterday: 53 °F

High & Low Weather Summary for the Past Weeks

 TemperatureHumidityPressure
High60 °F (May 23, 1:00 PM)98% (May 22, 11:00 AM)30.14 "Hg (May 22, 11:00 AM)
Low46 °F (May 21, 6:00 AM)57% (May 26, 9:00 AM)29.71 "Hg (May 22, 7:00 PM)
Average53 °F87%29.89 "Hg
* Reported May 12 5:00 PM — May 27 1:00 AM, Søgne, Weather by CustomWeather, © 2016

Note: Actual official high and low records may vary slightly from our data, if they occured in-between our weather recording intervals... More about our weather records

Advertising

Søgne Weather History for the Previous 24 Hours

Scroll right to see more
 ConditionsComfort  
Time TempWeatherWind HumidityBarometerVisibility
1:00 AM
Fri, May 27
50 °FCool.3 mph92%30.10 "HgN/A
12:00 AM51 °FCool.1 mph90%30.11 "HgN/A
11:00 PM
Thu, May 26
53 °FCool.1 mph84%30.11 "HgN/A
10:00 PM53 °FCool.2 mph83%30.10 "HgN/A
9:00 PM54 °FCool.3 mph81%30.09 "HgN/A
8:00 PM55 °FCool.5 mph78%30.09 "HgN/A
7:00 PM56 °FCool.5 mph73%30.09 "HgN/A
6:00 PM56 °FCool.3 mph68%30.09 "HgN/A
5:00 PM55 °FCool.7 mph74%30.10 "HgN/A
4:00 PM55 °FCool.5 mph72%30.11 "HgN/A
3:00 PM56 °FCool.5 mph66%30.11 "HgN/A
2:00 PM56 °FCool.5 mph67%30.11 "HgN/A
1:00 PM56 °FCool.6 mph67%30.12 "HgN/A
12:00 PM55 °FCool.6 mph63%30.13 "HgN/A
11:00 AM56 °FRefreshingly cool.7 mph60%30.13 "HgN/A
10:00 AM55 °FCool.7 mph59%30.13 "HgN/A
9:00 AM55 °FCool.8 mph57%30.14 "HgN/A
8:00 AM54 °FCool.5 mph59%30.14 "HgN/A
7:00 AM53 °FCool.3 mph65%30.14 "HgN/A
6:00 AM50 °FCool.5 mph76%30.14 "HgN/A
5:00 AM47 °FCool.5 mph90%30.13 "HgN/A
4:00 AM48 °FCool.5 mph88%30.13 "HgN/A
3:00 AM49 °FCool.5 mph87%30.13 "HgN/A
2:00 AM49 °FCool.3 mph87%30.14 "HgN/A
Weather by CustomWeather, © 2016

See weather overviewHow to use our weather pages